This is the latest recevied weather packets stored in our database for station/object K6GMW. If no packets are shown the sender has not sent any weather packets the latest 10 day(s).
| Time | Temp. | Humidity | Pressure | Rain* | Wind** | Luminosity | Snow |
|---|---|---|---|---|---|---|---|
| 1788223894 | 33.33° C | 45% | 1015.8 hPa | 0 mm | - | 2 W/m² | - |
| 1788223593 | 33.89° C | 44% | 1015.6 hPa | 0 mm | - | 4 W/m² | - |
| 1788223288 | 33.89° C | 43% | 1015.6 hPa | 0 mm | - | 7 W/m² | - |
| 1788222983 | 34.44° C | 43% | 1015.7 hPa | 0 mm | - | 10 W/m² | - |
| 1788222682 | 35° C | 42% | 1015.6 hPa | 0 mm | - | 15 W/m² | - |
| 1788222382 | 35° C | 41% | 1015.5 hPa | 0 mm | - | 20 W/m² | - |
| 1788222077 | 35.56° C | 40% | 1015.4 hPa | 0 mm | - | 25 W/m² | - |
| 1788221772 | 35.56° C | 39% | 1015.4 hPa | 0 mm | - | 32 W/m² | - |
| 1788221467 | 35.56° C | 38% | 1015.5 hPa | 0 mm | - | 39 W/m² | - |
| 1788221162 | 36.11° C | 38% | 1015.3 hPa | 0 mm | - | 46 W/m² | - |
| 1788220857 | 36.11° C | 38% | 1015.4 hPa | 0 mm | - | 53 W/m² | - |
| 1788220551 | 36.67° C | 37% | 1015.3 hPa | 0 mm | - | 61 W/m² | - |
| 1788220247 | 36.67° C | 37% | 1015.3 hPa | 0 mm | - | 68 W/m² | - |
| 1788219940 | 36.67° C | 36% | 1015.3 hPa | 0 mm | - | 77 W/m² | - |
| 1788219637 | 37.22° C | 36% | 1015.1 hPa | 0 mm | - | 84 W/m² | - |
| 1788219331 | 36.67° C | 36% | 1015.1 hPa | 0 mm | - | 92 W/m² | - |
| 1788219027 | 37.22° C | 36% | 1015.4 hPa | 0 mm | - | 97 W/m² | - |
| 1788218722 | 37.22° C | 36% | 1015.1 hPa | 0 mm | - | 109 W/m² | - |
| 1788218418 | 37.22° C | 36% | 1015.2 hPa | 0 mm | - | 123 W/m² | - |
| 1788218115 | 37.22° C | 36% | 1015.2 hPa | 0 mm | - | 136 W/m² | - |
| 1788217809 | 37.78° C | 35% | 1015.4 hPa | 0 mm | - | 149 W/m² | - |
| 1788217505 | 37.78° C | 34% | 1015.3 hPa | 0 mm | - | 159 W/m² | - |
| 1788217198 | 37.78° C | 34% | 1015.3 hPa | 0 mm | - | 178 W/m² | - |
| 1788216895 | 37.22° C | 35% | 1015.4 hPa | 0 mm | - | 205 W/m² | - |
| 1788216589 | 37.22° C | 35% | 1015.3 hPa | 0 mm | - | 223 W/m² | - |
* Rain latest hour (hover to see other rain measurements)
** Current wind speed in m/s (hover to see current wind gust speed)